Погода в Дипологе

Филиппины     8°36′38″N   123°21′08″E
темп.,
°C
ветер,
м/с
пор.,
м/с
влажн.,
%
обл.,
%
осадки,
мм/ч
давл.,
гПа
погр.,
м
6 мая, чт
чт623:00+26св499120 0.4 1009443
02:00+26всв599134 1.3 1008540
05:00+25всв4991100 0.9 1008537
08:00+28св577749 1.1 1010969
11:00+30ссв676341 0.1 10091197
14:00+30ссв676271 0.1 10071047
17:00+29всв5769100 0.0 1007915
20:00+27всв498098 0.0 1010686
7 мая, пт
пт723:00+26всв4885100 0.0 1010468
02:00+26всв3690100 0.2 1009372
05:00+25в2492100 0.1 1009217
08:00+28всв357699 0.3 1010852
11:00+30ссв6567100 0.1 1009840
14:00+30ссв4563100 0.1 1007795
17:00+28св3671100 0.0 1007438
20:00+26в2681100 0.0 1009299
8 мая, сб
сб823:00+26в3782100 0.1 1010425
02:00+25в248798 0.3 1008229
05:00+25в2392100 0.5 1008177
08:00+27св458294 1.3 1010666
11:00+28ссв457748 2.9 1009831
14:00+30ссв4563100 4.3 1007992
17:00+29св3568100 0.5 1007601
20:00+25юв2387100 2.8 1009105
9 мая, вс
вс923:00+25юв2388100 1.8 101090
02:00+24юз0192100 4.2 100896
05:00+24юв1193100 3.1 1008137
08:00+24ю1191100 4.6 1010104
11:00+27в0282100 0.1 1009337
14:00+28с3375100 0.9 1007568
17:00+27ссв1181100 0.4 1006125
20:00+25ююв1185100 0.7 100864
10 мая, пн
пн1023:00+25ю1184100 0.8 100970
02:00+25ю118393 1.3 100751
05:00+24ююв118497 0.1 100867
08:00+28в1268100 0.1 1009479
11:00+29с4366100 0.1 1008855
14:00+29ссв3364100 0.4 1006865
17:00+27ссз1275100 0.2 1007188
20:00+26зюз1182100 0.5 1009150